FDX1297 YMML-YSSY

Flight info

Callsign FDX1297
Flight time 1h 4m
Altitude 35000
Route DOSEL2/34 DOSEL Y59 RIVET
Aircraft B77L/H-SDE1E2E3FGHIJ2J3J4J5M1RWXY/LB1D1

Departure

Time 2026-04-21 07:47
Airport Melbourne Airport (YMML)

Arrival

Time 2026-04-21 08:51
Airport Sydney Kingsford Smith International Airport (YSSY)
Time Latitude Longitude Altitude Speed Heading
2026-04-21 07:08 -37.67797 144.84784 373 ft 0 kts 171°
2026-04-21 07:35 -37.67776 144.84778 375 ft 4 kts 158°
2026-04-21 07:36 -37.67753 144.84762 377 ft 4 kts 134°
2026-04-21 07:36 -37.67738 144.84734 376 ft 4 kts 106°
2026-04-21 07:36 -37.67735 144.84701 376 ft 4 kts 86°
2026-04-21 07:36 -37.67738 144.84667 375 ft 4 kts 76°
2026-04-21 07:37 -37.67745 144.84635 376 ft 4 kts 74°
2026-04-21 07:37 -37.67751 144.84603 374 ft 4 kts 100°
2026-04-21 07:37 -37.67745 144.84589 374 ft 3 kts 171°
2026-04-21 07:37 -37.67718 144.84583 375 ft 4 kts 171°
2026-04-21 07:38 -37.67691 144.84578 376 ft 4 kts 171°
2026-04-21 07:38 -37.67665 144.84572 377 ft 3 kts 171°
2026-04-21 07:38 -37.67660 144.84571 377 ft 1 kts 171°
2026-04-21 07:41 -37.67687 144.84576 378 ft 11 kts 171°
2026-04-21 07:41 -37.67822 144.84602 371 ft 24 kts 172°
2026-04-21 07:41 -37.68002 144.84636 366 ft 28 kts 172°
2026-04-21 07:41 -37.68200 144.84673 361 ft 29 kts 171°
2026-04-21 07:42 -37.68375 144.84636 357 ft 24 kts 238°
2026-04-21 07:42 -37.68403 144.84439 353 ft 23 kts 240°
2026-04-21 07:42 -37.68528 144.84306 354 ft 24 kts 230°
2026-04-21 07:42 -37.68546 144.84264 353 ft 0 kts 256°
2026-04-21 07:44 -37.68549 144.84250 352 ft 4 kts 258°
2026-04-21 07:44 -37.68554 144.84196 351 ft 7 kts 262°
2026-04-21 07:44 -37.68561 144.84135 355 ft 7 kts 262°
2026-04-21 07:44 -37.68537 144.84093 359 ft 7 kts 349°
2026-04-21 07:45 -37.68519 144.84088 355 ft 0 kts 351°
2026-04-21 07:46 -37.68516 144.84088 358 ft 3 kts 351°
2026-04-21 07:46 -37.68346 144.84056 358 ft 60 kts 352°
2026-04-21 07:47 -37.67667 144.83929 367 ft 134 kts 352°
2026-04-21 07:47 -37.66586 144.83749 646 ft 165 kts 352°
2026-04-21 07:47 -37.65448 144.83537 1492 ft 166 kts 351°
2026-04-21 07:47 -37.64289 144.83324 2324 ft 170 kts 352°
2026-04-21 07:48 -37.63106 144.83111 3165 ft 176 kts 351°
2026-04-21 07:48 -37.61800 144.82844 3568 ft 206 kts 349°
2026-04-21 07:48 -37.60324 144.82533 4119 ft 228 kts 350°
2026-04-21 07:48 -37.58680 144.82431 4636 ft 251 kts 11°
2026-04-21 07:49 -37.57004 144.83253 5283 ft 267 kts 25°
2026-04-21 07:49 -37.55321 144.84359 6256 ft 275 kts 27°
2026-04-21 07:49 -37.53618 144.85495 7269 ft 281 kts 26°
2026-04-21 07:49 -37.51853 144.86639 8226 ft 285 kts 26°
2026-04-21 07:50 -37.50060 144.87768 9182 ft 293 kts 25°
2026-04-21 07:50 -37.48211 144.88904 10193 ft 296 kts 25°
2026-04-21 07:50 -37.46970 144.89660 10746 ft 303 kts 25°
2026-04-21 07:50 -37.44306 144.91321 11202 ft 337 kts 31°
2026-04-21 07:51 -37.42513 144.93363 11412 ft 361 kts 53°
2026-04-21 07:51 -37.41546 144.95102 11738 ft 372 kts 57°
2026-04-21 07:51 -37.40075 144.97831 12677 ft 380 kts 56°
2026-04-21 07:51 -37.38069 145.01492 14106 ft 387 kts 56°
2026-04-21 07:52 -37.36516 145.04287 15047 ft 393 kts 56°
2026-04-21 07:52 -37.34928 145.07120 16007 ft 398 kts 56°
2026-04-21 07:52 -37.33842 145.09048 16644 ft 402 kts 56°
2026-04-21 07:52 -37.31679 145.12874 17865 ft 409 kts 56°
2026-04-21 07:53 -37.30018 145.15805 18758 ft 415 kts 56°
2026-04-21 07:53 -37.28329 145.18780 19536 ft 421 kts 56°
2026-04-21 07:53 -37.27197 145.20773 20053 ft 424 kts 56°
2026-04-21 07:53 -37.25470 145.23811 20806 ft 430 kts 56°
2026-04-21 07:54 -37.23717 145.26891 21582 ft 436 kts 56°
2026-04-21 07:54 -37.21943 145.30006 22351 ft 441 kts 56°
2026-04-21 07:54 -37.20147 145.33158 23102 ft 447 kts 56°
2026-04-21 07:54 -37.18324 145.36356 23847 ft 453 kts 56°
2026-04-21 07:55 -37.16479 145.39585 24482 ft 458 kts 55°
2026-04-21 07:55 -37.14639 145.42799 25115 ft 462 kts 55°
2026-04-21 07:55 -37.12756 145.46082 25799 ft 465 kts 55°
2026-04-21 07:55 -37.10856 145.49392 26439 ft 470 kts 55°
2026-04-21 07:56 -37.08938 145.52728 27071 ft 474 kts 55°
2026-04-21 07:56 -37.07001 145.56096 27668 ft 479 kts 55°
2026-04-21 07:56 -37.05043 145.59498 28242 ft 484 kts 54°
2026-04-21 07:56 -37.03064 145.62935 28851 ft 488 kts 54°
2026-04-21 07:57 -37.01068 145.66395 29439 ft 492 kts 54°
2026-04-21 07:57 -36.99055 145.69884 30012 ft 496 kts 54°
2026-04-21 07:57 -36.97020 145.73406 30509 ft 500 kts 54°
2026-04-21 07:57 -36.94976 145.76941 30944 ft 504 kts 54°
2026-04-21 07:58 -36.92908 145.80512 31359 ft 508 kts 54°
2026-04-21 07:58 -36.90860 145.84046 31847 ft 509 kts 54°
2026-04-21 07:58 -36.88782 145.87627 32456 ft 507 kts 54°
2026-04-21 07:58 -36.86712 145.91190 33093 ft 505 kts 54°
2026-04-21 07:59 -36.84653 145.94732 33648 ft 504 kts 54°
2026-04-21 07:59 -36.82592 145.98273 34197 ft 504 kts 54°
2026-04-21 07:59 -36.80531 146.01810 34636 ft 504 kts 54°
2026-04-21 07:59 -36.78465 146.05352 35065 ft 504 kts 54°
2026-04-21 08:00 -36.76393 146.08901 35340 ft 508 kts 54°
2026-04-21 08:00 -36.74301 146.12482 35309 ft 511 kts 54°
2026-04-21 08:00 -36.70137 146.19595 35303 ft 504 kts 54°
2026-04-21 08:01 -36.66033 146.26590 35313 ft 502 kts 54°
2026-04-21 08:02 -36.59871 146.37067 35306 ft 496 kts 54°
2026-04-21 08:02 -36.55789 146.43991 35311 ft 496 kts 54°
2026-04-21 08:03 -36.51704 146.50905 35307 ft 496 kts 54°
2026-04-21 08:03 -36.47607 146.57826 35303 ft 497 kts 54°
2026-04-21 08:04 -36.43505 146.64740 35314 ft 497 kts 54°
2026-04-21 08:04 -36.39416 146.71620 35312 ft 498 kts 54°
2026-04-21 08:05 -36.35291 146.78545 35303 ft 499 kts 54°
2026-04-21 08:05 -36.31160 146.85469 35324 ft 499 kts 54°
2026-04-21 08:06 -36.26968 146.92479 35321 ft 513 kts 54°
2026-04-21 08:06 -36.22681 146.99635 35312 ft 519 kts 54°
2026-04-21 08:07 -36.18397 147.06769 35302 ft 520 kts 54°
2026-04-21 08:07 -36.14065 147.13967 35318 ft 521 kts 54°
2026-04-21 08:08 -36.09732 147.21157 35304 ft 522 kts 54°
2026-04-21 08:08 -36.05382 147.28363 35304 ft 522 kts 54°
2026-04-21 08:09 -36.01038 147.35544 35313 ft 522 kts 54°
2026-04-21 08:09 -35.96690 147.42718 35323 ft 521 kts 54°
2026-04-21 08:10 -35.92338 147.49882 35314 ft 521 kts 54°
2026-04-21 08:10 -35.87983 147.57036 35315 ft 521 kts 54°
2026-04-21 08:11 -35.83624 147.64187 35317 ft 521 kts 54°
2026-04-21 08:11 -35.79283 147.71281 35311 ft 521 kts 54°
2026-04-21 08:12 -35.74904 147.78422 35324 ft 522 kts 54°
2026-04-21 08:12 -35.70529 147.85546 35309 ft 522 kts 54°
2026-04-21 08:13 -35.66146 147.92672 35338 ft 522 kts 54°
2026-04-21 08:13 -35.61755 147.99794 35320 ft 522 kts 54°
2026-04-21 08:14 -35.57379 148.06877 35327 ft 523 kts 54°
2026-04-21 08:14 -35.52978 148.13989 35327 ft 523 kts 54°
2026-04-21 08:15 -35.48570 148.21095 35343 ft 523 kts 54°
2026-04-21 08:15 -35.44149 148.28213 35338 ft 524 kts 54°
2026-04-21 08:16 -35.39720 148.35316 35329 ft 525 kts 54°
2026-04-21 08:16 -35.35285 148.42406 35344 ft 524 kts 54°
2026-04-21 08:17 -35.30867 148.49452 35359 ft 525 kts 54°
2026-04-21 08:17 -35.26411 148.56544 35350 ft 525 kts 54°
2026-04-21 08:18 -35.21956 148.63631 35352 ft 526 kts 54°
2026-04-21 08:18 -35.17494 148.70714 35352 ft 525 kts 54°
2026-04-21 08:19 -35.13027 148.77787 35363 ft 525 kts 54°
2026-04-21 08:19 -35.08549 148.84864 35355 ft 526 kts 54°
2026-04-21 08:20 -35.04097 148.91886 35350 ft 526 kts 54°
2026-04-21 08:20 -34.99689 148.98820 35336 ft 503 kts 54°
2026-04-21 08:21 -34.95444 149.05487 34920 ft 499 kts 54°
2026-04-21 08:21 -34.93321 149.08821 34271 ft 490 kts 54°
2026-04-21 08:21 -34.91274 149.12026 33666 ft 468 kts 54°
2026-04-21 08:21 -34.89279 149.15041 33196 ft 448 kts 49°
2026-04-21 08:22 -34.87047 149.17568 32772 ft 430 kts 38°
2026-04-21 08:22 -34.84551 149.19518 32408 ft 424 kts 29°
2026-04-21 08:22 -34.82006 149.21293 32042 ft 433 kts 31°
2026-04-21 08:22 -34.79372 149.23240 31662 ft 452 kts 32°
2026-04-21 08:23 -34.76632 149.25291 31287 ft 469 kts 32°
2026-04-21 08:23 -34.73856 149.27378 30928 ft 468 kts 32°
2026-04-21 08:23 -34.71096 149.29457 30637 ft 469 kts 32°
2026-04-21 08:23 -34.68283 149.31580 30587 ft 480 kts 32°
2026-04-21 08:24 -34.65452 149.33718 30566 ft 477 kts 32°
2026-04-21 08:24 -34.62650 149.35834 30246 ft 471 kts 32°
2026-04-21 08:24 -34.59909 149.37950 29865 ft 460 kts 37°
2026-04-21 08:24 -34.57664 149.40622 29780 ft 445 kts 57°
2026-04-21 08:25 -34.56181 149.43869 29777 ft 439 kts 72°
2026-04-21 08:25 -34.55264 149.47415 29210 ft 442 kts 82°
2026-04-21 08:25 -34.54783 149.51080 28711 ft 437 kts 88°
2026-04-21 08:25 -34.54665 149.54675 28216 ft 429 kts 98°
2026-04-21 08:26 -34.55210 149.58159 27764 ft 416 kts 112°
2026-04-21 08:26 -34.56132 149.61458 27359 ft 410 kts 112°
2026-04-21 08:26 -34.56958 149.64752 27002 ft 405 kts 110°
2026-04-21 08:26 -34.57736 149.67993 26807 ft 395 kts 111°
2026-04-21 08:27 -34.58508 149.71150 26656 ft 385 kts 111°
2026-04-21 08:27 -34.59269 149.74222 26493 ft 374 kts 110°
2026-04-21 08:27 -34.59647 149.77344 26074 ft 379 kts 92°
2026-04-21 08:27 -34.59316 149.80539 25674 ft 383 kts 80°
2026-04-21 08:28 -34.58397 149.83588 25283 ft 387 kts 66°
2026-04-21 08:28 -34.57107 149.86445 24960 ft 385 kts 63°
2026-04-21 08:28 -34.55798 149.89263 24626 ft 382 kts 64°
2026-04-21 08:28 -34.54537 149.92046 24278 ft 380 kts 65°
2026-04-21 08:29 -34.53285 149.94862 23934 ft 377 kts 65°
2026-04-21 08:29 -34.52046 149.97667 23531 ft 375 kts 65°
2026-04-21 08:29 -34.50820 150.00440 23142 ft 372 kts 65°
2026-04-21 08:29 -34.49603 150.03192 22759 ft 369 kts 65°
2026-04-21 08:30 -34.48390 150.05932 22369 ft 367 kts 65°
2026-04-21 08:30 -34.47185 150.08649 21978 ft 365 kts 65°
2026-04-21 08:30 -34.45988 150.11350 21598 ft 363 kts 65°
2026-04-21 08:30 -34.44799 150.14030 21225 ft 360 kts 65°
2026-04-21 08:31 -34.43615 150.16696 20856 ft 358 kts 65°
2026-04-21 08:31 -34.42439 150.19345 20508 ft 355 kts 65°
2026-04-21 08:31 -34.41270 150.21971 20148 ft 353 kts 65°
2026-04-21 08:31 -34.40107 150.24585 19772 ft 351 kts 65°
2026-04-21 08:32 -34.38973 150.27131 19354 ft 344 kts 65°
2026-04-21 08:32 -34.37842 150.29668 18710 ft 341 kts 65°
2026-04-21 08:32 -34.36714 150.32199 17930 ft 340 kts 64°
2026-04-21 08:32 -34.35597 150.34703 17242 ft 335 kts 64°
2026-04-21 08:33 -34.34497 150.37168 16589 ft 331 kts 65°
2026-04-21 08:33 -34.33404 150.39612 15930 ft 327 kts 64°
2026-04-21 08:33 -34.32327 150.42022 15281 ft 324 kts 64°
2026-04-21 08:33 -34.31275 150.44371 14682 ft 320 kts 64°
2026-04-21 08:34 -34.30211 150.46746 14178 ft 322 kts 64°
2026-04-21 08:34 -34.29122 150.49071 13831 ft 313 kts 57°
2026-04-21 08:34 -34.27473 150.50832 13175 ft 320 kts 31°
2026-04-21 08:34 -34.25537 150.52169 12504 ft 322 kts 37°
2026-04-21 08:35 -34.23861 150.53936 12140 ft 315 kts 49°
2026-04-21 08:35 -34.22504 150.55966 11903 ft 306 kts 57°
2026-04-21 08:35 -34.21376 150.58092 11699 ft 296 kts 62°
2026-04-21 08:35 -34.20385 150.60199 11453 ft 289 kts 64°
2026-04-21 08:36 -34.19429 150.62315 11140 ft 285 kts 64°
2026-04-21 08:36 -34.18484 150.64422 10769 ft 284 kts 64°
2026-04-21 08:36 -34.17546 150.66518 10423 ft 283 kts 64°
2026-04-21 08:36 -34.16611 150.68599 10071 ft 281 kts 64°
2026-04-21 08:37 -34.15684 150.70663 9675 ft 279 kts 64°
2026-04-21 08:37 -34.14760 150.72718 9299 ft 277 kts 64°
2026-04-21 08:37 -34.13850 150.74741 9116 ft 272 kts 64°
2026-04-21 08:37 -34.12953 150.76734 9061 ft 270 kts 65°
2026-04-21 08:38 -34.12060 150.78718 9026 ft 275 kts 65°
2026-04-21 08:38 -34.11127 150.80780 9004 ft 277 kts 65°
2026-04-21 08:38 -34.10215 150.82799 9005 ft 277 kts 64°
2026-04-21 08:38 -34.09293 150.84842 8999 ft 276 kts 65°
2026-04-21 08:39 -34.08376 150.86879 8994 ft 275 kts 65°
2026-04-21 08:39 -34.07465 150.88903 8995 ft 274 kts 65°
2026-04-21 08:39 -34.06552 150.90934 8951 ft 276 kts 64°
2026-04-21 08:39 -34.05625 150.92997 8634 ft 283 kts 65°
2026-04-21 08:40 -34.04682 150.95089 8265 ft 283 kts 64°
2026-04-21 08:40 -34.03742 150.97171 7813 ft 283 kts 64°
2026-04-21 08:40 -34.03084 150.98514 7503 ft 280 kts 56°
2026-04-21 08:40 -34.01615 151.00046 7059 ft 283 kts 28°
2026-04-21 08:41 -33.99072 151.00621 6487 ft 283 kts 357°
2026-04-21 08:41 -33.97116 151.00426 6110 ft 279 kts 352°
2026-04-21 08:41 -33.95227 150.99913 5984 ft 279 kts 343°
2026-04-21 08:41 -33.93961 150.99463 5835 ft 283 kts 342°
2026-04-21 08:42 -33.91449 150.98510 5379 ft 286 kts 342°
2026-04-21 08:42 -33.90196 150.98029 5154 ft 284 kts 342°
2026-04-21 08:42 -33.88326 150.97306 4814 ft 280 kts 342°
2026-04-21 08:42 -33.86484 150.96586 4468 ft 277 kts 342°
2026-04-21 08:43 -33.84659 150.95870 4136 ft 274 kts 341°
2026-04-21 08:43 -33.82853 150.95157 3819 ft 272 kts 342°
2026-04-21 08:43 -33.81066 150.94466 3523 ft 266 kts 346°
2026-04-21 08:43 -33.79241 150.94389 3230 ft 265 kts 16°
2026-04-21 08:44 -33.77635 150.95382 3091 ft 258 kts 48°
2026-04-21 08:44 -33.76631 150.97094 3026 ft 250 kts 69°
2026-04-21 08:44 -33.75919 150.99006 3005 ft 251 kts 72°
2026-04-21 08:44 -33.75256 151.00934 2999 ft 249 kts 73°
2026-04-21 08:45 -33.74600 151.02847 2994 ft 244 kts 72°
2026-04-21 08:45 -33.74062 151.04658 2965 ft 219 kts 86°
2026-04-21 08:45 -33.74129 151.06348 2977 ft 193 kts 103°
2026-04-21 08:45 -33.74320 151.07926 2983 ft 189 kts 103°
2026-04-21 08:46 -33.74489 151.09477 2982 ft 185 kts 103°
2026-04-21 08:46 -33.74696 151.10992 2976 ft 182 kts 117°
2026-04-21 08:46 -33.75501 151.12054 3009 ft 175 kts 155°
2026-04-21 08:46 -33.76637 151.12559 3017 ft 176 kts 161°
2026-04-21 08:47 -33.77809 151.13051 3010 ft 178 kts 161°
2026-04-21 08:47 -33.79001 151.13494 2859 ft 182 kts 165°
2026-04-21 08:47 -33.80223 151.13851 2618 ft 178 kts 167°
2026-04-21 08:47 -33.81423 151.14169 2376 ft 175 kts 168°
2026-04-21 08:48 -33.82586 151.14472 2177 ft 165 kts 167°
2026-04-21 08:48 -33.83680 151.14755 1927 ft 158 kts 167°
2026-04-21 08:48 -33.84761 151.15035 1746 ft 157 kts 169°
2026-04-21 08:48 -33.85792 151.15302 1516 ft 144 kts 169°
2026-04-21 08:49 -33.86701 151.15539 1327 ft 126 kts 169°
2026-04-21 08:49 -33.87567 151.15764 1192 ft 133 kts 169°
2026-04-21 08:49 -33.88472 151.15998 1020 ft 132 kts 169°
2026-04-21 08:49 -33.89355 151.16223 835 ft 129 kts 167°
2026-04-21 08:50 -33.90224 151.16460 682 ft 129 kts 169°
2026-04-21 08:50 -33.91118 151.16691 517 ft 130 kts 168°
2026-04-21 08:50 -33.91993 151.16916 294 ft 128 kts 169°
2026-04-21 08:50 -33.92870 151.17141 110 ft 126 kts 168°
2026-04-21 08:51 -33.93696 151.17354 32 ft 113 kts 168°
2026-04-21 08:51 -33.94319 151.17518 35 ft 65 kts 168°
2026-04-21 08:51 -33.94634 151.17600 34 ft 40 kts 168°
2026-04-21 08:51 -33.94887 151.17649 33 ft 35 kts 177°
2026-04-21 08:52 -33.95102 151.17624 32 ft 15 kts 192°
2026-04-21 08:52 -33.95147 151.17551 34 ft 13 kts 298°
2026-04-21 08:52 -33.95063 151.17509 33 ft 14 kts 348°
2026-04-21 08:52 -33.94966 151.17484 34 ft 15 kts 348°
2026-04-21 08:53 -33.94860 151.17458 34 ft 16 kts 348°
2026-04-21 08:53 -33.94751 151.17429 35 ft 16 kts 347°
2026-04-21 08:53 -33.94641 151.17399 35 ft 16 kts 348°
2026-04-21 08:53 -33.94531 151.17371 35 ft 16 kts 348°
2026-04-21 08:54 -33.94420 151.17342 35 ft 16 kts 348°
2026-04-21 08:54 -33.94310 151.17313 35 ft 16 kts 348°
2026-04-21 08:54 -33.94196 151.17284 33 ft 18 kts 348°
2026-04-21 08:54 -33.94069 151.17251 34 ft 19 kts 348°
2026-04-21 08:55 -33.93943 151.17218 33 ft 19 kts 348°
2026-04-21 08:55 -33.93816 151.17185 33 ft 19 kts 348°
2026-04-21 08:55 -33.93689 151.17152 34 ft 19 kts 348°
2026-04-21 08:55 -33.93561 151.17119 34 ft 19 kts 348°
2026-04-21 08:56 -33.93434 151.17086 34 ft 19 kts 348°
2026-04-21 08:56 -33.93314 151.17030 34 ft 19 kts 317°
2026-04-21 08:56 -33.93203 151.16950 34 ft 19 kts 348°
2026-04-21 08:56 -33.93101 151.16924 34 ft 7 kts 346°
2026-04-21 08:57 -33.93091 151.16874 34 ft 8 kts 247°
2026-04-21 08:57 -33.93096 151.16858 34 ft 2 kts 249°
2026-04-21 08:57 -33.93100 151.16842 34 ft 0 kts 258°
2026-04-21 08:57 -33.93101 151.16836 34 ft 1 kts 258°
2026-04-21 08:58 -33.93102 151.16827 34 ft 1 kts 258°
2026-04-21 08:58 -33.93104 151.16817 34 ft 0 kts 258°
2026-04-21 08:58 -33.93105 151.16810 33 ft 1 kts 258°
2026-04-21 08:58 -33.93106 151.16803 34 ft 1 kts 258°
2026-04-21 08:59 -33.93109 151.16787 34 ft 0 kts 258°
2026-04-21 08:59 -33.93110 151.16784 34 ft 1 kts 258°
2026-04-21 08:59 -33.93110 151.16783 34 ft 0 kts 258°